Temperature
14 13 13 12 12 12 11 11 11 10 10 10 10 9 9 9 8 8 8 7 7 7 7 6 6 5 5 4 4 3 3 2 1 1 1 1 0 -0 -1 -1 -1 -2 -2
14 13 13 12 12 11 11 11 10 10 10 9 9 9 9 8 8 8 8 7 7 7 6 6 5 5 4 4 3 3 2 1 1 0 0 0 -0 -1 -1 -2 -2 -2 -3
13 13 12 12 11 11 11 10 10 10 9 9 9 9 8 8 8 7 7 7 6 6 6 5 5 4 4 3 3 2 1 1 0 -0 -0 -1 -1 -2 -2 -2 -3 -3 -3
13 13 12 12 11 11 10 10 10 9 9 9 8 8 8 8 7 7 7 6 6 5 5 5 4 4 3 3 2 1 1 0 -0 -1 -1 -2 -2 -2 -3 -4 -4 -4 -4
13 12 12 12 11 10 10 10 9 9 9 8 8 8 8 7 7 7 6 6 5 5 4 4 4 3 2 2 1 1 0 -1 -1 -2 -2 -2 -3 -3 -4 -4 -5 -5 -5
12 12 12 11 11 10 9 9 9 8 8 8 8 8 7 7 7 6 6 5 5 4 4 4 3 2 2 1 1 0 -1 -1 -2 -2 -3 -3 -4 -4 -5 -5 -5 -6 -6
12 12 11 11 10 10 9 9 9 8 8 8 7 7 7 6 6 6 5 5 4 4 3 3 2 2 1 1 0 -0 -1 -2 -2 -3 -4 -4 -4 -5 -5 -6 -6 -6 -6
12 11 11 10 10 9 9 9 8 8 8 7 7 7 6 6 5 5 4 4 4 3 3 2 2 1 1 -0 -1 -1 -2 -2 -3 -3 -4 -4 -5 -5 -6 -6 -6 -7 -7
12 11 11 10 10 9 9 8 8 7 7 7 6 6 6 5 5 4 4 3 3 2 2 1 1 0 -0 -1 -1 -2 -3 -3 -4 -4 -5 -5 -6 -6 -6 -7 -7 -7 -7
12 11 10 10 9 9 8 8 7 7 7 6 6 5 5 4 4 3 3 3 2 2 1 1 -0 -1 -1 -2 -3 -3 -4 -4 -5 -5 -6 -6 -6 -7 -7 -7 -8 -8 -8
12 11 10 9 9 8 8 7 7 6 6 5 5 5 4 4 3 3 2 2 1 1 0 -0 -1 -2 -2 -3 -4 -4 -5 -5 -6 -6 -6 -7 -7 -7 -8 -8 -8 -9 -9
11 10 10 9 8 8 7 7 6 6 5 5 4 4 3 3 2 2 2 1 0 -0 -1 -1 -2 -3 -3 -4 -5 -5 -6 -6 -6 -7 -7 -8 -8 -8 -8 -9 -9 -9 -9
11 10 9 8 8 7 7 6 6 5 5 4 4 3 3 2 2 1 1 0 -0 -1 -2 -2 -3 -4 -4 -5 -5 -6 -6 -7 -7 -8 -8 -8 -9 -9 -9 -9 -9 -9 -9
10 9 9 8 7 7 6 5 5 5 4 4 3 3 2 1 1 0 -0 -1 -1 -2 -3 -3 -4 -4 -5 -6 -6 -7 -7 -8 -8 -8 -9 -9 -9 -9 -10 -10 -10 -10 -10
9 9 8 7 7 6 5 5 4 4 3 3 2 2 1 1 0 -1 -1 -2 -3 -3 -4 -4 -5 -5 -6 -6 -7 -7 -8 -8 -9 -9 -9 -10 -10 -10 -10 -10 -10 -10 -10
9 8 8 7 6 5 5 4 3 3 3 2 2 1 1 -0 -1 -2 -2 -3 -4 -4 -5 -5 -6 -6 -7 -8 -8 -8 -9 -9 -10 -10 -10 -10 -10 -10 -10 -10 -10 -10 -10
9 8 7 6 6 5 4 4 3 2 2 1 1 0 -0 -1 -2 -2 -3 -4 -4 -5 -5 -6 -7 -7 -8 -8 -9 -9 -9 -10 -10 -10 -10 -11 -11 -11 -11 -11 -11 -11 -11
8 7 6 6 5 4 4 3 3 2 1 1 0 -0 -1 -2 -2 -3 -4 -4 -5 -5 -6 -7 -7 -8 -8 -9 -9 -10 -10 -10 -10 -11 -11 -11 -11 -11 -11 -11 -11 -11 -11
7 6 6 5 4 4 3 2 2 1 1 0 -0 -1 -2 -2 -3 -4 -4 -5 -5 -6 -7 -7 -8 -8 -9 -9 -10 -10 -10 -11 -11 -11 -11 -11 -11 -11 -11 -11 -11 -11 -11
6 6 5 4 4 3 2 2 1 1 0 -1 -1 -2 -2 -3 -3 -4 -5 -5 -6 -7 -7 -8 -8 -9 -9 -10 -10 -10 -11 -11 -11 -11 -11 -11 -12 -12 -12 -12 -12 -12 -11
6 5 4 3 3 2 2 1 1 -0 -1 -1 -2 -3 -3 -4 -4 -5 -5 -6 -7 -7 -8 -8 -9 -9 -10 -10 -10 -11 -11 -11 -11 -11 -11 -12 -12 -12 -12 -12 -12 -12 -12
5 4 3 3 2 2 1 0 -0 -1 -1 -2 -3 -3 -4 -4 -5 -5 -6 -7 -7 -8 -8 -9 -9 -10 -10 -10 -11 -11 -11 -11 -11 -11 -12 -12 -12 -12 -12 -12 -12 -12 -12
4 3 3 2 1 1 0 -0 -1 -1 -2 -3 -3 -4 -4 -5 -5 -6 -7 -7 -8 -8 -9 -9 -9 -10 -10 -10 -11 -11 -11 -11 -11 -11 -12 -12 -12 -12 -12 -12 -12 -12 -12
3 3 2 1 1 0 -0 -1 -1 -2 -3 -3 -4 -4 -5 -5 -6 -6 -7 -7 -8 -8 -9 -9 -10 -10 -10 -10 -11 -11 -11 -11 -11 -11 -12 -12 -12 -12 -12 -12 -12 -12 -12
2 2 1 1 0 -0 -1 -1 -2 -3 -3 -4 -4 -5 -5 -6 -6 -7 -7 -8 -8 -8 -9 -9 -9 -10 -10 -10 -10 -11 -11 -11 -11 -12 -12 -12 -12 -12 -12 -12 -12 -12 -12
2 1 1 0 -0 -1 -2 -2 -3 -3 -4 -4 -5 -5 -6 -6 -7 -7 -8 -8 -8 -9 -9 -9 -9 -10 -10 -10 -10 -10 -11 -11 -11 -11 -12 -12 -12 -12 -12 -12 -12 -12 -12
Wind_Speed
10 10 10 9 9 9 9 10 9 8 9 10 10 9 9 9 8 8 7 7 7 6 5 6 6 5 4 4 4 4 5 5 7 6 4 4 4 6 10 13 14 14 15
9 9 9 9 9 9 9 9 9 9 9 9 9 8 8 8 8 9 8 8 8 7 7 6 6 5 5 4 4 5 5 6 6 8 5 4 6 6 7 7 10 12 13
9 9 9 9 9 9 8 8 8 8 8 8 8 8 8 8 8 8 8 7 7 7 7 7 6 6 6 5 5 6 5 5 6 6 6 4 4 5 5 6 7 8 13
9 9 9 9 9 9 8 8 8 8 8 8 8 7 7 7 7 7 6 6 6 5 5 6 6 7 7 6 6 6 5 5 5 6 7 5 5 5 4 5 6 5 7
9 9 9 8 8 8 7 7 7 7 7 7 7 6 6 6 6 7 6 6 5 4 4 5 5 7 8 7 5 5 5 5 5 5 6 5 5 4 5 5 7 7 7
9 9 8 8 8 8 7 7 7 6 6 6 6 6 6 4 7 9 7 6 5 5 4 4 4 6 8 9 11 10 8 6 5 5 5 6 7 6 6 6 6 7 6
9 8 8 9 8 8 8 8 7 7 6 6 6 6 5 4 6 7 8 5 5 4 4 3 3 4 5 4 7 9 9 12 11 7 7 7 7 6 6 7 7 8 8
9 9 9 9 9 8 8 7 7 5 6 5 5 5 4 3 5 6 6 4 3 3 3 3 4 4 4 4 4 4 5 7 9 6 6 8 7 7 6 6 7 7 6
10 9 9 10 9 9 8 7 5 6 5 4 4 5 4 2 3 4 5 3 2 2 2 2 2 3 7 8 4 5 6 6 9 12 13 12 13 13 11 5 4 5 6
10 9 9 9 10 9 8 7 5 5 6 6 5 4 4 3 3 4 4 3 2 1 1 1 3 5 8 9 4 4 6 6 5 5 6 8 8 9 11 5 3 5 5
9 9 9 8 9 8 7 6 7 7 7 6 5 4 3 3 3 4 3 2 2 1 1 2 3 7 9 9 8 4 8 7 3 3 4 4 5 4 5 4 4 4 5
11 10 9 9 8 8 9 7 7 8 7 6 5 4 2 2 3 2 2 1 1 1 1 2 3 7 7 8 7 9 11 8 3 3 3 4 4 4 5 5 6 6 7
12 11 10 9 8 8 9 9 7 6 6 5 4 3 2 1 1 2 2 2 2 1 1 3 5 6 6 5 7 10 8 4 3 3 4 4 4 4 4 4 5 5 6
13 11 10 10 9 7 6 6 6 6 5 4 4 3 2 1 1 1 0 1 2 2 2 3 5 6 5 5 6 5 4 3 4 3 4 4 4 3 3 3 3 3 3
13 11 10 9 9 8 6 5 5 4 5 6 4 4 3 1 1 1 1 0 0 1 1 1 2 2 3 3 3 3 3 4 4 4 4 4 4 4 4 3 2 2 2
13 10 8 8 8 8 8 7 8 7 8 7 6 4 2 2 2 2 3 3 4 3 2 1 2 2 3 3 4 4 4 4 4 4 4 4 4 4 4 4 3 2 3
13 11 9 8 8 8 7 7 6 6 9 9 8 6 5 4 3 3 3 4 4 4 2 1 2 3 3 3 4 4 4 4 4 4 4 4 4 4 4 4 4 3 4
12 12 10 8 8 7 7 6 6 6 4 3 4 6 5 4 4 3 4 4 3 2 1 2 3 3 3 4 4 4 4 4 4 4 4 4 4 4 4 4 4 4 4
11 9 8 8 7 7 6 6 5 5 5 3 2 2 4 4 4 4 4 2 1 2 2 3 3 3 4 4 4 4 4 5 4 4 4 4 4 3 4 4 4 7 5
9 14 12 9 8 7 6 6 5 5 4 3 2 1 1 2 1 1 1 1 1 2 3 3 3 4 4 4 4 4 5 5 4 4 4 4 4 4 4 5 4 4 4
10 11 13 9 7 7 6 5 5 4 4 2 1 1 0 1 1 1 1 2 2 3 3 4 4 4 4 4 4 4 5 5 4 4 4 4 4 4 4 4 4 4 4
10 9 8 8 7 6 6 5 5 4 4 3 1 1 2 1 0 1 2 3 3 3 3 4 4 4 4 4 4 5 5 5 5 4 4 4 4 4 4 4 4 4 4
10 10 8 7 7 8 7 5 4 4 3 2 1 0 0 1 1 2 3 3 3 3 4 4 4 4 5 6 6 5 5 6 5 5 5 5 4 4 4 4 5 4 4
10 10 9 8 7 6 6 5 4 3 3 2 1 1 1 1 2 3 3 3 4 4 5 5 5 6 8 7 8 8 8 10 9 7 7 6 6 5 5 4 5 5 5
10 9 9 8 7 6 5 5 4 3 2 1 1 1 1 2 3 3 3 4 4 5 6 6 6 7 8 10 10 10 12 14 13 10 8 6 6 6 6 5 5 5 4
9 9 8 7 6 6 5 4 3 3 2 1 1 1 2 3 3 4 4 4 4 5 6 6 8 9 10 11 12 13 14 14 14 14 8 5 5 5 5 5 6 5 5
Wind_Direction
174 176 174 177 176 172 176 181 178 173 172 177 182 180 181 181 178 180 185 179 188 195 191 197 211 198 197 200 197 203 210 205 248 268 249 259 262 268 283 285 286 285 287
170 169 172 170 168 171 176 176 171 172 176 177 175 176 180 182 180 184 188 186 190 198 202 201 215 203 208 208 207 216 221 216 230 267 273 264 257 262 268 277 285 286 283
163 164 165 167 170 174 174 169 168 169 170 169 170 178 182 181 181 187 186 187 195 201 200 205 213 203 220 222 220 225 230 234 228 251 273 265 266 268 278 279 279 282 287
160 163 168 173 173 172 166 163 165 164 165 169 175 177 176 173 175 178 179 187 194 199 203 209 210 209 222 226 229 232 232 235 237 250 268 273 268 267 264 276 287 274 281
162 167 172 167 161 156 155 156 154 156 161 162 160 158 158 163 175 176 180 183 187 199 212 218 220 226 234 235 238 232 225 234 241 252 266 275 275 275 270 264 280 285 276
165 168 159 153 152 153 151 147 145 145 144 144 153 157 160 175 189 188 179 177 185 197 217 230 236 242 253 264 269 267 258 250 250 251 262 268 273 267 268 272 278 289 289
161 157 154 152 150 151 146 143 147 149 144 147 154 157 167 181 182 185 181 168 181 198 210 224 243 253 269 268 280 287 286 283 279 272 266 267 271 270 272 277 273 275 280
157 155 154 151 149 145 143 146 145 143 147 151 152 155 150 163 172 176 173 157 169 191 207 216 233 257 269 274 255 266 267 272 279 277 257 264 266 270 264 272 279 283 277
160 160 158 154 149 147 149 148 142 139 137 137 139 139 139 148 160 160 145 137 157 201 225 231 245 253 282 295 284 274 278 277 284 288 290 294 300 305 306 302 299 297 295
164 158 152 150 150 152 150 141 133 132 131 125 116 123 129 131 130 132 128 135 153 206 268 274 286 293 298 304 287 270 279 280 283 296 302 307 306 306 309 305 279 285 289
143 138 138 140 141 139 130 125 126 120 116 112 108 99 103 111 120 118 113 122 155 174 236 270 280 303 309 309 307 282 290 307 303 293 292 292 295 292 291 283 260 254 268
133 131 131 129 127 127 122 118 118 121 117 113 108 94 74 75 91 105 94 61 79 158 241 257 280 311 318 319 318 314 318 328 331 311 302 297 294 290 287 283 279 266 256
129 128 126 119 115 123 127 127 121 119 122 123 121 118 97 58 48 56 43 16 4 31 288 318 327 331 333 330 325 325 332 334 315 306 299 292 285 281 288 295 292 293 292
131 129 127 123 116 110 112 123 127 131 129 131 132 133 119 81 33 21 49 25 14 19 24 356 353 350 351 337 333 335 334 313 311 296 292 288 293 294 295 295 294 310 316
129 129 125 123 124 116 106 108 121 135 148 147 154 152 145 157 249 347 47 93 119 142 79 30 3 348 339 331 326 319 317 318 318 309 302 303 306 309 305 307 300 310 304
134 133 131 129 125 123 117 97 84 101 107 107 117 119 112 100 51 27 16 15 7 10 37 7 327 318 308 307 310 310 308 310 309 309 307 305 304 303 304 306 305 303 299
138 137 134 134 133 131 129 126 115 86 83 86 90 86 79 69 56 38 27 27 19 19 30 332 305 300 298 299 298 296 294 298 300 300 300 301 303 300 301 304 308 308 303
129 133 134 134 134 133 131 130 130 129 114 76 66 67 66 62 53 39 33 38 22 18 340 296 290 290 292 294 294 294 294 299 298 295 294 296 296 298 302 303 305 300 300
129 130 128 127 126 126 125 122 121 120 119 113 78 50 53 54 49 35 33 48 320 308 304 296 290 288 288 288 288 290 289 289 289 288 288 291 291 289 291 294 297 306 309
126 132 131 128 126 125 124 124 124 124 124 124 123 116 37 54 41 9 13 342 299 289 289 290 290 289 288 285 286 288 289 288 287 280 281 284 284 281 284 288 292 295 293
127 131 129 124 125 128 128 129 131 133 136 138 152 241 301 125 162 272 292 291 280 279 281 283 284 286 284 282 280 283 284 285 282 277 277 280 282 280 279 283 285 284 291
128 127 128 128 126 126 126 127 130 133 138 139 135 353 18 55 294 282 284 285 280 274 270 272 275 274 269 272 275 279 281 282 280 275 274 274 274 277 280 282 285 287 292
126 126 124 124 125 131 124 123 127 132 136 142 157 183 327 289 276 279 284 288 288 284 286 280 275 277 281 280 275 265 269 275 275 270 269 272 271 273 274 276 280 283 284
127 128 129 129 127 129 131 132 134 139 145 156 180 219 249 264 275 285 287 287 286 286 287 284 279 278 282 288 286 281 276 275 273 263 252 255 261 266 266 269 272 271 273
127 129 130 133 135 136 136 137 141 145 151 166 198 241 266 278 283 286 287 285 286 285 287 289 287 286 287 288 288 288 287 287 285 276 253 241 248 251 256 261 266 269 267
126 127 129 131 134 138 141 145 150 155 166 188 219 247 266 275 280 284 286 284 285 287 290 291 287 288 290 292 291 292 292 292 290 289 275 240 239 247 249 254 260 262 264
Height
1443 1447 1451 1456 1460 1465 1469 1473 1477 1481 1484 1487 1490 1492 1494 1496 1498 1500 1501 1502 1503 1504 1504 1504 1504 1504 1503 1502 1501 1499 1498 1495 1490 1487 1487 1485 1483 1481 1478 1475 1472 1468 1465
1440 1444 1448 1452 1456 1460 1465 1469 1473 1476 1480 1482 1485 1487 1489 1491 1493 1495 1496 1497 1498 1499 1499 1499 1499 1499 1498 1497 1495 1494 1492 1490 1486 1481 1480 1478 1476 1474 1471 1468 1465 1462 1458
1437 1441 1445 1448 1452 1456 1461 1465 1468 1472 1475 1477 1480 1482 1484 1486 1488 1490 1491 1492 1493 1494 1494 1494 1494 1493 1492 1491 1490 1488 1486 1484 1481 1477 1473 1471 1469 1467 1464 1461 1458 1455 1451
1435 1438 1442 1445 1449 1453 1457 1461 1464 1467 1470 1473 1476 1478 1480 1482 1483 1485 1486 1487 1488 1488 1489 1489 1488 1487 1486 1485 1484 1482 1480 1477 1475 1471 1467 1465 1462 1460 1457 1453 1449 1446 1444
1432 1435 1439 1443 1446 1450 1453 1457 1460 1463 1466 1469 1471 1473 1475 1477 1479 1480 1481 1482 1483 1483 1483 1483 1483 1482 1481 1479 1478 1476 1474 1471 1468 1465 1462 1458 1456 1453 1450 1446 1442 1438 1435
1429 1433 1436 1440 1443 1447 1450 1454 1457 1460 1463 1465 1467 1469 1471 1472 1474 1475 1476 1477 1478 1478 1478 1478 1478 1477 1475 1474 1472 1470 1468 1466 1462 1459 1456 1453 1449 1447 1444 1441 1437 1432 1428
1427 1430 1434 1437 1440 1444 1447 1451 1453 1456 1459 1461 1463 1465 1467 1469 1470 1471 1472 1472 1473 1473 1473 1472 1472 1471 1469 1468 1466 1464 1462 1460 1457 1454 1450 1447 1444 1441 1438 1434 1431 1427 1424
1424 1428 1431 1434 1438 1441 1444 1447 1450 1453 1455 1457 1460 1461 1463 1465 1466 1466 1467 1468 1468 1468 1468 1467 1466 1465 1463 1461 1459 1457 1455 1453 1451 1448 1445 1441 1438 1435 1433 1429 1426 1421 1418
1421 1425 1428 1432 1435 1438 1441 1444 1447 1450 1452 1454 1456 1458 1459 1461 1461 1462 1463 1463 1463 1463 1463 1462 1460 1459 1457 1455 1453 1450 1447 1446 1444 1441 1439 1436 1433 1430 1428 1424 1420 1416 1411
1419 1422 1426 1430 1433 1436 1439 1442 1445 1447 1449 1451 1453 1455 1456 1457 1458 1458 1458 1458 1458 1458 1458 1457 1455 1453 1452 1449 1447 1444 1441 1439 1436 1434 1432 1429 1427 1424 1421 1419 1415 1411 1407
1416 1420 1424 1428 1431 1434 1437 1440 1442 1444 1446 1448 1450 1451 1452 1453 1454 1454 1454 1454 1454 1453 1452 1451 1449 1448 1446 1444 1441 1439 1436 1433 1430 1427 1425 1422 1420 1418 1415 1413 1410 1407 1404
1414 1418 1422 1425 1429 1432 1435 1437 1439 1442 1444 1445 1447 1448 1449 1450 1450 1450 1450 1450 1449 1448 1447 1445 1444 1442 1440 1438 1436 1434 1431 1428 1425 1422 1419 1417 1414 1412 1409 1407 1405 1402 1400
1411 1415 1419 1423 1427 1430 1432 1435 1437 1439 1441 1442 1444 1445 1446 1446 1447 1447 1446 1446 1445 1444 1442 1440 1439 1437 1435 1433 1431 1428 1426 1423 1420 1417 1414 1412 1410 1407 1405 1402 1400 1398 1396
1409 1413 1417 1421 1424 1427 1430 1433 1435 1437 1438 1439 1441 1442 1442 1443 1443 1443 1442 1441 1440 1438 1437 1435 1434 1432 1430 1428 1426 1423 1421 1418 1416 1413 1410 1408 1405 1403 1401 1398 1396 1393 1391
1407 1411 1415 1419 1422 1425 1428 1431 1433 1435 1436 1437 1438 1439 1439 1439 1439 1439 1438 1437 1436 1434 1432 1431 1429 1427 1425 1423 1420 1418 1416 1413 1411 1409 1406 1404 1401 1399 1397 1395 1393 1391 1388
1404 1409 1413 1417 1420 1423 1426 1428 1430 1432 1433 1434 1435 1436 1436 1436 1436 1435 1435 1433 1432 1430 1428 1426 1424 1422 1420 1418 1416 1413 1411 1409 1407 1405 1403 1401 1398 1396 1394 1392 1391 1389 1386
1403 1407 1411 1415 1418 1421 1424 1426 1428 1430 1431 1432 1432 1433 1433 1433 1432 1432 1430 1429 1428 1426 1424 1422 1420 1418 1416 1414 1412 1410 1408 1406 1404 1402 1400 1398 1396 1394 1392 1390 1388 1386 1384
1402 1406 1410 1413 1416 1419 1422 1424 1426 1427 1428 1429 1430 1430 1430 1429 1429 1428 1427 1425 1423 1422 1420 1418 1416 1414 1412 1410 1408 1406 1404 1402 1400 1399 1397 1395 1393 1391 1389 1388 1386 1384 1382
1400 1404 1408 1411 1414 1417 1420 1422 1423 1425 1425 1426 1427 1427 1427 1426 1425 1424 1423 1421 1419 1418 1416 1414 1412 1410 1408 1406 1405 1403 1401 1399 1397 1395 1394 1392 1391 1389 1387 1386 1384 1382 1380
1399 1403 1406 1410 1412 1415 1417 1419 1421 1422 1423 1423 1423 1423 1423 1422 1421 1420 1419 1417 1416 1414 1412 1410 1408 1407 1405 1403 1401 1399 1397 1396 1394 1392 1391 1389 1388 1386 1385 1383 1382 1380 1379
1397 1401 1405 1408 1411 1413 1415 1417 1418 1419 1420 1420 1420 1420 1420 1419 1418 1416 1415 1414 1412 1410 1408 1406 1405 1403 1401 1399 1397 1395 1394 1392 1391 1389 1388 1387 1385 1384 1382 1381 1380 1378 1377
1395 1399 1403 1406 1409 1411 1413 1414 1416 1416 1417 1417 1417 1417 1416 1415 1414 1413 1411 1410 1408 1406 1405 1403 1401 1399 1397 1396 1394 1392 1390 1389 1387 1386 1385 1384 1382 1381 1380 1379 1377 1376 1375
1394 1397 1401 1404 1406 1408 1410 1412 1413 1413 1414 1414 1414 1413 1413 1412 1410 1409 1408 1406 1404 1403 1401 1399 1397 1395 1394 1392 1390 1388 1386 1385 1384 1383 1382 1381 1380 1379 1377 1376 1375 1374 1373
1392 1395 1399 1401 1404 1406 1407 1409 1409 1410 1411 1411 1410 1410 1409 1408 1407 1406 1404 1402 1401 1399 1397 1395 1393 1391 1390 1388 1386 1384 1383 1382 1380 1379 1379 1378 1377 1376 1375 1374 1373 1372 1371
1390 1393 1396 1399 1401 1403 1404 1406 1406 1407 1407 1407 1407 1407 1406 1405 1403 1402 1400 1399 1397 1395 1394 1392 1390 1388 1386 1384 1382 1380 1379 1378 1377 1376 1375 1375 1374 1373 1372 1371 1370 1370 1369
1388 1391 1394 1397 1399 1400 1401 1403 1403 1404 1404 1404 1404 1403 1402 1401 1400 1398 1397 1395 1393 1392 1390 1388 1386 1384 1382 1380 1378 1377 1375 1374 1373 1373 1373 1372 1371 1370 1369 1368 1368 1367 1366